Temp_Advection
nan nan nan nan nan nan nan nan nan nan nan nan nan nan nan nan nan nan nan nan nan nan nan nan nan nan nan nan nan nan nan nan nan
nan 0 0 0 -0 -0 -0 -0 -0 -0 0 0 0 0 0 0 0 0 0 0 0 0 0 0 0 -0 -0 0 0 0 0 0 nan
nan 0 0 0 0 -0 -0 -0 0 -0 0 0 0 0 0 0 0 0 0 0 0 0 0 0 0 0 0 0 -0 -0 0 0 nan
nan 0 0 0 -0 0 0 0 0 0 -0 0 0 0 0 0 0 0 0 0 0 0 0 0 0 0 0 0 0 0 -0 0 nan
nan 0 0 0 0 0 0 0 0 0 0 0 0 0 0 -0 0 0 0 0 0 0 0 0 0 0 0 0 -0 -0 -0 0 nan
nan -0 0 0 0 0 0 0 0 0 0 0 0 0 0 0 -0 -0 0 0 0 0 0 0 0 0 0 0 0 -0 -0 -0 nan
nan -0 0 0 0 0 0 0 0 0 0 0 0 0 0 -0 -0 -0 -0 -0 0 0 0 0 0 0 0 0 0 0 0 0 nan
nan -0 -0 0 0 0 0 0 0 0 0 0 0 0 0 -0 0 -0 -0 -0 0 0 0 0 0 0 -0 0 0 0 0 0 nan
nan -0 -0 0 0 0 0 0 0 0 0 0 0 0 -0 -0 0 0 -0 -0 -0 0 0 0 0 -0 -0 -0 0 0 0 0 nan
nan -0 -0 0 0 0 0 0 -0 -0 0 0 0 0 -0 0 0 0 -0 -0 -0 -0 0 0 -0 -0 -0 0 0 0 0 0 nan
nan 0 0 0 0 0 0 -0 0 0 0 -0 0 0 0 0 0 0 0 -0 -0 -0 -0 -0 -0 -0 0 0 0 0 0 0 nan
nan 0 0 0 -0 0 0 0 0 0 0 -0 -0 -0 0 0 0 0 0 -0 -0 -0 -0 -0 -0 0 -0 -0 0 0 -0 -0 nan
nan 0 0 0 0 0 0 -0 -0 0 0 -0 -0 -0 0 0 0 0 0 0 -0 -0 -0 -0 -0 -0 -0 -0 -0 -0 0 0 nan
nan 0 0 0 0 0 0 0 -0 -0 0 0 -0 -0 -0 -0 -0 -0 0 0 0 -0 -0 -0 -0 -0 -0 -0 -0 -0 -0 -0 nan
nan 0 0 0 0 0 0 0 -0 -0 -0 -0 0 -0 -0 -0 -0 -0 -0 -0 0 0 0 -0 -0 -0 -0 -0 -0 -0 -0 -0 nan
nan -0 -0 -0 0 0 0 0 -0 -0 -0 -0 -0 0 -0 -0 -0 -0 0 -0 0 0 0 0 -0 -0 -0 -0 -0 -0 -0 0 nan
nan -0 -0 -0 0 0 0 -0 -0 -0 -0 -0 -0 -0 -0 -0 -0 0 0 -0 0 -0 0 0 -0 0 -0 -0 -0 -0 -0 -0 nan
nan -0 -0 -0 -0 -0 0 0 -0 -0 -0 0 -0 -0 -0 -1 -0 -0 -0 -0 -0 -0 0 -0 -0 0 -0 -0 -0 -0 -0 -0 nan
nan -0 -0 -0 -0 -0 -0 0 0 -0 -0 -0 0 0 -0 -0 -1 -0 -0 -0 -0 -0 -0 -0 0 -0 -0 -0 -0 -0 -0 -0 nan
nan nan nan nan nan nan nan nan nan nan nan nan nan nan nan nan nan nan nan nan nan nan nan nan nan nan nan nan nan nan nan nan nan
Wind_Speed
18 18 5 6 5 7 8 8 8 8 9 10 10 11 11 11 10 9 9 10 11 10 10 11 12 13 13 13 13 13 12 12 12
11 9 4 3 2 4 5 6 6 7 6 7 9 8 9 10 9 8 8 9 9 9 10 10 10 10 10 10 11 10 11 11 10
8 6 3 2 1 1 3 5 6 7 6 6 6 6 8 8 8 7 8 8 9 9 9 9 8 7 7 8 8 9 9 9 9
2 2 3 1 0 2 2 3 5 6 7 6 6 6 6 6 8 7 5 7 8 9 9 7 5 5 5 6 6 6 6 6 7
2 3 3 3 2 1 2 2 4 6 5 7 5 3 3 5 6 5 4 5 6 7 6 5 5 3 4 4 4 4 4 5 5
0 1 3 4 4 4 4 3 3 7 7 8 3 3 3 3 2 4 2 2 4 5 4 4 4 4 3 2 2 2 2 3 2
3 3 3 4 6 5 4 3 3 7 7 10 6 4 3 2 2 4 2 0 2 4 4 4 4 3 3 2 1 2 2 3 3
5 3 1 2 4 5 5 3 4 6 6 9 7 3 1 1 3 4 5 2 2 3 3 3 5 4 3 2 2 2 3 4 3
3 3 2 2 3 4 5 4 3 4 6 8 5 5 4 5 6 8 6 5 3 3 3 4 5 4 5 5 5 4 5 5 4
3 1 1 5 3 1 3 3 2 1 2 3 7 9 6 6 6 7 7 5 4 3 4 4 7 7 6 7 6 7 7 6 6
4 2 1 2 3 3 3 5 6 4 5 7 8 9 11 10 9 8 10 9 6 5 5 6 7 8 7 6 7 8 9 8 8
5 7 2 1 5 3 5 7 7 7 6 9 13 15 12 13 13 12 11 11 11 9 7 7 7 9 8 8 8 9 10 10 10
5 6 10 5 6 5 7 7 9 9 10 11 13 12 14 14 15 13 11 12 11 13 11 10 7 8 10 9 10 10 11 12 12
3 4 6 10 7 6 7 7 7 9 9 10 10 11 12 13 14 14 14 16 15 16 15 14 12 10 12 11 10 12 12 14 15
3 4 4 5 9 10 9 7 7 8 11 11 12 12 12 15 15 14 16 16 18 16 16 16 15 14 15 16 17 13 16 15 16
3 3 4 5 5 8 10 10 12 10 11 12 13 13 16 16 20 20 20 19 20 20 20 19 19 19 18 19 19 19 15 16 16
7 6 6 5 5 7 6 7 8 8 9 12 15 12 15 7 10 19 22 23 24 23 21 21 22 22 23 21 21 22 19 16 17
9 11 8 8 7 7 7 7 8 10 10 11 8 8 5 18 9 5 10 15 19 24 28 28 27 27 26 25 24 24 20 21 21
5 7 10 10 10 10 10 11 10 11 13 14 14 14 19 21 17 12 16 18 22 15 14 20 24 26 29 28 28 25 25 26 27
6 7 8 9 11 12 12 12 13 15 15 15 17 19 20 21 24 33 31 27 27 25 24 23 22 22 21 22 31 29 30 30 28
Wind_Direction
116 103 91 354 42 61 76 92 110 120 105 100 96 91 88 83 92 106 115 119 123 121 110 110 108 101 95 92 94 94 94 95 97
88 120 152 186 347 51 93 110 128 137 117 106 94 93 89 80 88 109 118 128 134 130 118 118 111 103 97 93 96 89 87 88 96
150 169 174 246 155 93 103 128 149 152 150 133 107 98 90 82 77 107 117 128 131 127 128 122 118 109 98 98 97 95 89 88 89
157 173 200 220 17 84 119 154 162 166 174 154 133 112 87 74 81 102 125 132 139 150 148 144 139 127 104 100 100 94 89 90 95
231 235 231 233 253 174 165 177 181 179 173 167 171 146 87 82 81 81 112 141 155 159 163 161 154 137 122 115 109 97 94 91 103
41 285 248 229 219 214 194 193 189 183 172 165 161 161 109 91 38 47 86 119 150 158 167 165 178 168 139 143 126 126 112 122 110
322 307 277 214 203 205 187 182 178 179 170 152 170 158 118 30 358 356 3 297 183 168 168 181 181 178 174 154 123 138 163 160 148
322 338 304 212 205 194 171 157 150 171 179 171 181 191 94 266 319 336 332 288 222 186 185 199 191 205 231 226 197 183 185 187 182
306 329 37 110 168 178 167 163 155 178 195 186 208 214 275 284 274 292 311 301 295 228 220 225 227 245 248 242 232 223 212 212 210
269 293 52 101 87 220 137 160 299 267 177 249 235 225 239 233 246 279 307 303 289 279 251 239 249 258 247 234 227 225 225 227 227
233 212 234 145 143 137 188 210 234 240 247 253 243 236 230 238 243 257 288 301 301 300 276 256 259 263 240 234 234 229 231 234 235
221 215 177 184 238 201 246 231 255 264 268 279 271 243 231 238 243 248 259 281 294 282 280 278 268 249 247 245 248 244 242 244 246
186 209 205 197 187 221 247 265 258 263 278 292 279 259 242 243 239 245 252 259 280 275 275 274 273 267 256 258 254 251 247 249 252
204 197 200 207 213 224 244 270 268 264 277 289 293 273 244 245 249 242 248 257 261 272 281 276 265 259 253 263 264 262 261 254 253
260 239 225 221 217 220 242 263 281 287 294 291 294 298 271 250 245 243 253 259 257 261 266 276 273 260 250 258 265 269 267 261 250
298 284 261 259 247 233 244 270 274 296 297 301 301 300 298 279 251 244 243 248 256 259 262 265 269 269 260 251 255 266 269 258 240
307 304 295 281 267 264 267 294 292 290 297 301 299 310 307 297 294 256 253 252 255 259 259 261 259 264 266 262 256 255 259 248 229
292 297 310 303 289 278 271 274 290 283 280 281 290 310 296 312 300 291 280 271 269 267 260 262 263 264 265 267 263 250 246 246 244
299 296 294 307 305 293 282 273 275 281 280 274 266 273 282 294 298 293 284 282 291 288 287 275 268 267 265 262 260 253 247 244 248
312 303 300 299 299 301 293 280 270 272 274 280 280 273 275 280 285 292 294 294 290 288 284 279 268 275 283 276 258 256 246 240 242
Height
1558 1558 1559 1558 1559 1559 1559 1559 1559 1560 1559 1559 1559 1559 1558 1558 1559 1559 1560 1561 1561 1562 1562 1563 1564 1565 1565 1565 1565 1565 1565 1565 1565
1560 1561 1563 1563 1562 1561 1561 1561 1561 1561 1561 1561 1561 1561 1561 1560 1561 1561 1562 1563 1564 1564 1565 1566 1567 1567 1568 1568 1567 1567 1567 1567 1567
1561 1562 1561 1561 1562 1563 1562 1562 1562 1562 1562 1563 1563 1563 1563 1563 1563 1563 1564 1565 1565 1566 1567 1567 1568 1569 1569 1569 1569 1569 1570 1569 1569
1562 1562 1562 1562 1562 1563 1562 1562 1562 1563 1564 1564 1564 1565 1565 1564 1564 1565 1566 1566 1567 1568 1568 1569 1569 1570 1570 1570 1570 1571 1571 1571 1571
1562 1562 1562 1562 1562 1563 1563 1562 1563 1563 1564 1565 1566 1567 1566 1566 1566 1567 1567 1567 1568 1569 1570 1569 1571 1571 1571 1571 1571 1571 1572 1572 1572
1562 1562 1562 1562 1563 1564 1563 1563 1563 1564 1565 1566 1568 1568 1567 1567 1568 1568 1568 1569 1569 1569 1569 1570 1571 1572 1572 1573 1572 1572 1573 1573 1574
1562 1561 1561 1562 1563 1563 1563 1563 1564 1565 1566 1567 1568 1569 1569 1569 1569 1569 1569 1569 1570 1570 1571 1571 1572 1572 1572 1573 1573 1573 1573 1574 1575
1562 1562 1562 1561 1562 1563 1564 1564 1565 1565 1567 1568 1569 1570 1570 1570 1570 1570 1570 1570 1571 1571 1572 1572 1573 1573 1573 1573 1574 1574 1574 1575 1576
1562 1563 1563 1562 1563 1563 1564 1565 1566 1566 1567 1568 1569 1570 1570 1570 1571 1571 1572 1572 1572 1571 1572 1572 1573 1573 1573 1573 1574 1574 1575 1576 1576
1563 1564 1564 1563 1564 1565 1565 1566 1567 1567 1568 1569 1569 1570 1571 1571 1572 1572 1572 1573 1572 1572 1572 1572 1572 1573 1573 1573 1574 1575 1575 1576 1576
1564 1565 1565 1565 1565 1566 1566 1568 1568 1568 1568 1569 1569 1570 1570 1571 1572 1572 1573 1572 1573 1572 1573 1572 1572 1572 1573 1573 1573 1574 1575 1575 1575
1562 1564 1565 1565 1566 1567 1566 1567 1568 1568 1568 1568 1568 1568 1569 1569 1570 1571 1572 1572 1572 1572 1572 1572 1571 1572 1572 1573 1573 1573 1574 1574 1574
1562 1562 1563 1564 1565 1566 1566 1567 1567 1567 1566 1566 1566 1566 1567 1567 1568 1569 1570 1571 1571 1571 1571 1571 1571 1571 1572 1572 1572 1572 1572 1572 1573
1562 1562 1562 1563 1564 1564 1565 1565 1565 1566 1566 1566 1565 1564 1564 1565 1565 1567 1568 1569 1570 1570 1570 1569 1570 1571 1571 1570 1570 1570 1570 1571 1571
1562 1562 1561 1562 1563 1563 1563 1563 1563 1564 1564 1563 1562 1561 1560 1560 1562 1563 1565 1566 1567 1568 1568 1568 1568 1568 1569 1568 1569 1569 1569 1568 1569
1562 1561 1561 1561 1561 1561 1561 1561 1561 1561 1561 1560 1560 1559 1559 1558 1558 1559 1561 1563 1564 1564 1564 1564 1565 1565 1565 1565 1566 1566 1566 1567 1567
1562 1561 1561 1561 1561 1560 1560 1560 1560 1561 1560 1560 1559 1557 1557 1556 1555 1556 1557 1559 1559 1560 1560 1561 1561 1562 1561 1562 1562 1563 1564 1564 1565
1561 1561 1561 1560 1560 1559 1559 1560 1560 1560 1560 1560 1561 1559 1556 1555 1553 1553 1554 1555 1555 1555 1556 1557 1557 1558 1557 1558 1558 1559 1560 1562 1562
1560 1561 1561 1560 1559 1559 1559 1559 1559 1559 1558 1559 1559 1559 1558 1556 1551 1551 1552 1552 1551 1552 1551 1551 1551 1551 1551 1552 1553 1554 1554 1557 1558
1559 1559 1559 1558 1558 1558 1557 1557 1557 1557 1557 1557 1556 1556 1555 1555 1553 1546 1546 1547 1548 1548 1547 1547 1547 1547 1547 1546 1547 1548 1549 1551 1551